| time (UTC) | temp C | wind direction | speed KPH | gust KPH | rain 1hr cm | rain 24hr cm | rain mn cm | humidity % | barometer mb |
| 20260508085027 | 5 | 0 | 0.0 | 0.0 | 0.00 | 0.36 | 0.03 | 92 | 1015.2 |
| 20260508084536 | 5 | 0 | 0.0 | 0.0 | 0.00 | 0.36 | 0.03 | 92 | 1015.4 |
| 20260508084027 | 5 | 0 | 0.0 | 0.0 | 0.00 | 0.36 | 0.03 | 92 | 1015.2 |
| 20260508083527 | 5 | 0 | 0.0 | 0.0 | 0.00 | 0.36 | 0.03 | 92 | 1015.2 |
| 20260508083041 | 6 | 0 | 0.0 | 0.0 | 0.00 | 0.36 | 0.03 | 92 | 1015.3 |
| 20260508082527 | 6 | 0 | 0.0 | 0.0 | 0.00 | 0.36 | 0.03 | 92 | 1015.3 |
| 20260508082026 | 6 | 0 | 0.0 | 0.0 | 0.00 | 0.36 | 0.03 | 92 | 1015.2 |
| 20260508081541 | 6 | 0 | 0.0 | 0.0 | 0.00 | 0.36 | 0.03 | 92 | 1015.2 |
| 20260508081026 | 6 | 0 | 0.0 | 0.0 | 0.00 | 0.36 | 0.03 | 92 | 1015.3 |
| 20260508080527 | 6 | 0 | 0.0 | 0.0 | 0.00 | 0.36 | 0.03 | 92 | 1015.3 |
| 20260508080039 | 6 | 0 | 0.0 | 1.6 | 0.00 | 0.36 | 0.03 | 92 | 1015.2 |
| 20260508075527 | 6 | 0 | 0.0 | 1.6 | 0.00 | 0.36 | 0.03 | 92 | 1015.3 |
| 20260508075029 | 6 | 0 | 0.0 | 1.6 | 0.00 | 0.36 | 0.03 | 93 | 1015.1 |
| 20260508074541 | 6 | 0 | 0.0 | 3.2 | 0.03 | 0.36 | 0.03 | 92 | 1015.2 |
| 20260508074027 | 6 | 0 | 0.0 | 3.2 | 0.03 | 0.36 | 0.03 | 92 | 1015.4 |
| 20260508073526 | 6 | 213 | 0.0 | 3.2 | 0.03 | 0.36 | 0.03 | 92 | 1015.2 |
| 20260508073037 | 6 | 0 | 0.0 | 0.0 | 0.03 | 0.36 | 0.03 | 92 | 1015.2 |
| 20260508072527 | 6 | 0 | 0.0 | 0.0 | 0.03 | 0.36 | 0.03 | 92 | 1015.3 |
| 20260508072027 | 6 | 0 | 0.0 | 0.0 | 0.03 | 0.36 | 0.03 | 91 | 1015.2 |
| 20260508071539 | 7 | 0 | 0.0 | 0.0 | 0.03 | 0.36 | 0.03 | 91 | 1015.4 |
| 20260508071027 | 7 | 0 | 0.0 | 0.0 | 0.03 | 0.36 | 0.03 | 91 | 1015.3 |
| 20260508070527 | 7 | 0 | 0.0 | 0.0 | 0.03 | 0.36 | 0.03 | 91 | 1015.3 |
| 20260508070041 | 7 | 0 | 0.0 | 0.0 | 0.03 | 0.36 | 0.03 | 91 | 1015.3 |
| 20260508065528 | 7 | 0 | 0.0 | 0.0 | 0.03 | 0.36 | 0.03 | 91 | 1015.4 |
| 20260508065026 | 7 | 0 | 0.0 | 0.0 | 0.00 | 0.33 | 0.00 | 91 | 1015.3 |
| 20260508064536 | 7 | 0 | 0.0 | 4.8 | 0.00 | 0.33 | 0.00 | 91 | 1015.3 |
| 20260508064027 | 7 | 0 | 0.0 | 4.8 | 0.00 | 0.33 | 0.00 | 91 | 1015.2 |
| 20260508063531 | 7 | 213 | 1.6 | 4.8 | 0.00 | 0.33 | 0.00 | 91 | 1015.4 |
| 20260508063043 | 7 | 186 | 0.0 | 3.2 | 0.00 | 0.33 | 0.00 | 91 | 1015.3 |
| 20260508062527 | 7 | 0 | 0.0 | 0.0 | 0.00 | 0.33 | 0.00 | 91 | 1015.2 |
| 20260508062026 | 7 | 0 | 0.0 | 1.6 | 0.00 | 0.33 | 0.00 | 91 | 1015.2 |
| 20260508061541 | 7 | 0 | 0.0 | 1.6 | 0.00 | 0.33 | 0.00 | 91 | 1015.2 |
| 20260508061028 | 7 | 0 | 0.0 | 3.2 | 0.00 | 0.33 | 0.00 | 91 | 1015.4 |
| 20260508060526 | 8 | 0 | 0.0 | 4.8 | 0.00 | 0.33 | 0.00 | 91 | 1015.4 |
| 20260508060043 | 8 | 0 | 0.0 | 4.8 | 0.00 | 0.33 | 0.00 | 91 | 1015.3 |
| 20260508055526 | 8 | 179 | 1.6 | 4.8 | 0.00 | 0.33 | 0.33 | 90 | 1015.3 |
| 20260508055031 | 8 | 0 | 0.0 | 1.6 | 0.00 | 0.33 | 0.33 | 90 | 1015.4 |
| 20260508054555 | 8 | 0 | 0.0 | 0.0 | 0.00 | 0.33 | 0.33 | 90 | 1015.2 |
| 20260508054030 | 8 | 0 | 0.0 | 4.8 | 0.00 | 0.33 | 0.33 | 90 | 1015.2 |
| 20260508053526 | 8 | 0 | 0.0 | 4.8 | 0.00 | 0.33 | 0.33 | 90 | 1015.2 |
| 20260508053040 | 8 | 179 | 1.6 | 4.8 | 0.00 | 0.33 | 0.33 | 90 | 1015.2 |
| 20260508052527 | 8 | 0 | 0.0 | 4.8 | 0.00 | 0.33 | 0.33 | 89 | 1015.2 |
| 20260508052027 | 8 | 143 | 0.0 | 3.2 | 0.00 | 0.33 | 0.33 | 89 | 1015.0 |
| 20260508051537 | 8 | 0 | 0.0 | 3.2 | 0.00 | 0.33 | 0.33 | 89 | 1015.1 |
| 20260508051027 | 8 | 0 | 0.0 | 3.2 | 0.00 | 0.33 | 0.33 | 88 | 1014.9 |
| 20260508050527 | 8 | 0 | 0.0 | 4.8 | 0.00 | 0.33 | 0.33 | 89 | 1014.9 |
| 20260508050047 | 8 | 234 | 1.6 | 4.8 | 0.00 | 0.33 | 0.33 | 89 | 1014.9 |
| 20260508045526 | 9 | 261 | 1.6 | 4.8 | 0.00 | 0.33 | 0.33 | 89 | 1015.0 |
| 20260508045026 | 9 | 262 | 1.6 | 4.8 | 0.00 | 0.33 | 0.33 | 89 | 1015.0 |
| 20260508044543 | 9 | 243 | 0.0 | 3.2 | 0.00 | 0.33 | 0.33 | 89 | 1015.2 |
| 20260508044026 | 9 | 0 | 0.0 | 0.0 | 0.00 | 0.33 | 0.33 | 89 | 1015.0 |
| 20260508043526 | 9 | 0 | 0.0 | 3.2 | 0.00 | 0.33 | 0.33 | 89 | 1015.1 |
| 20260508043038 | 10 | 0 | 0.0 | 4.8 | 0.00 | 0.33 | 0.33 | 89 | 1015.1 |
| 20260508042527 | 10 | 243 | 1.6 | 6.4 | 0.00 | 0.33 | 0.33 | 89 | 1015.2 |
| 20260508042027 | 10 | 237 | 1.6 | 8.0 | 0.00 | 0.33 | 0.33 | 89 | 1015.2 |
| 20260508041548 | 10 | 234 | 1.6 | 8.0 | 0.00 | 0.33 | 0.33 | 89 | 1015.2 |
| 20260508041028 | 10 | 235 | 1.6 | 11.3 | 0.00 | 0.33 | 0.33 | 89 | 1015.2 |
| 20260508040528 | 10 | 220 | 3.2 | 11.3 | 0.03 | 0.33 | 0.33 | 89 | 1015.1 |
| 20260508040039 | 10 | 197 | 6.4 | 11.3 | 0.03 | 0.33 | 0.33 | 88 | 1014.8 |
| 20260508035527 | 10 | 212 | 3.2 | 4.8 | 0.03 | 0.33 | 0.33 | 89 | 1014.9 |
| 20260508035028 | 10 | 215 | 0.0 | 4.8 | 0.03 | 0.33 | 0.33 | 89 | 1015.0 |
| 20260508034540 | 10 | 0 | 0.0 | 3.2 | 0.03 | 0.33 | 0.33 | 89 | 1015.1 |
| 20260508034028 | 10 | 0 | 0.0 | 3.2 | 0.03 | 0.33 | 0.33 | 89 | 1015.2 |
| 20260508033527 | 10 | 0 | 0.0 | 0.0 | 0.03 | 0.33 | 0.33 | 88 | 1015.3 |
| 20260508033039 | 10 | 0 | 0.0 | 0.0 | 0.03 | 0.33 | 0.33 | 87 | 1015.2 |
| 20260508032529 | 10 | 0 | 0.0 | 1.6 | 0.03 | 0.33 | 0.33 | 87 | 1015.1 |
| 20260508032027 | 10 | 0 | 0.0 | 4.8 | 0.03 | 0.33 | 0.33 | 87 | 1014.9 |
| 20260508031553 | 10 | 0 | 0.0 | 4.8 | 0.03 | 0.33 | 0.33 | 87 | 1014.6 |
| 20260508031027 | 10 | 184 | 1.6 | 4.8 | 0.03 | 0.33 | 0.33 | 87 | 1014.9 |
| 20260508030527 | 10 | 252 | 1.6 | 6.4 | 0.00 | 0.30 | 0.30 | 86 | 1015.1 |
| 20260508030046 | 10 | 0 | 0.0 | 6.4 | 0.00 | 0.30 | 0.30 | 86 | 1015.0 |
| 20260508025526 | 10 | 247 | 3.2 | 6.4 | 0.00 | 0.30 | 0.30 | 86 | 1014.9 |
| 20260508025026 | 10 | 245 | 0.0 | 3.2 | 0.00 | 0.30 | 0.30 | 86 | 1014.7 |
| 20260508024536 | 10 | 0 | 0.0 | 0.0 | 0.00 | 0.30 | 0.30 | 86 | 1014.5 |
| 20260508024027 | 10 | 0 | 0.0 | 0.0 | 0.00 | 0.30 | 0.30 | 85 | 1014.5 |
| 20260508023527 | 10 | 0 | 0.0 | 3.2 | 0.00 | 0.30 | 0.30 | 84 | 1014.2 |
| 20260508023042 | 10 | 0 | 0.0 | 4.8 | 0.00 | 0.30 | 0.30 | 84 | 1014.3 |
| 20260508022526 | 10 | 330 | 0.0 | 8.0 | 0.00 | 0.30 | 0.30 | 84 | 1014.2 |
| 20260508022026 | 10 | 345 | 3.2 | 8.0 | 0.00 | 0.30 | 0.30 | 84 | 1014.0 |
| 20260508021542 | 10 | 39 | 3.2 | 6.4 | 0.00 | 0.30 | 0.30 | 84 | 1013.7 |
| 20260508021027 | 10 | 39 | 3.2 | 8.0 | 0.00 | 0.30 | 0.30 | 84 | 1013.5 |
| 20260508020526 | 10 | 0 | 1.6 | 8.0 | 0.00 | 0.30 | 0.30 | 84 | 1014.1 |
| 20260508020037 | 10 | 250 | 1.6 | 6.4 | 0.03 | 0.30 | 0.30 | 84 | 1014.0 |
| 20260508015527 | 10 | 233 | 0.0 | 3.2 | 0.03 | 0.30 | 0.30 | 84 | 1013.9 |
| 20260508015027 | 10 | 245 | 0.0 | 3.2 | 0.05 | 0.30 | 0.30 | 83 | 1013.8 |
| 20260508014537 | 10 | 0 | 0.0 | 1.6 | 0.08 | 0.30 | 0.30 | 83 | 1013.9 |
| 20260508014026 | 10 | 0 | 0.0 | 1.6 | 0.08 | 0.30 | 0.30 | 83 | 1013.8 |
| 20260508013526 | 11 | 0 | 0.0 | 3.2 | 0.10 | 0.30 | 0.30 | 83 | 1013.7 |
| 20260508013043 | 11 | 0 | 0.0 | 4.8 | 0.13 | 0.30 | 0.30 | 82 | 1013.5 |
| 20260508012526 | 11 | 335 | 1.6 | 4.8 | 0.13 | 0.30 | 0.30 | 81 | 1013.3 |
| 20260508012027 | 11 | 353 | 1.6 | 8.0 | 0.15 | 0.30 | 0.30 | 80 | 1013.2 |
| 20260508011536 | 11 | 348 | 1.6 | 8.0 | 0.15 | 0.30 | 0.30 | 80 | 1013.0 |
| 20260508011026 | 11 | 335 | 4.8 | 11.3 | 0.15 | 0.30 | 0.30 | 79 | 1012.9 |
| 20260508010526 | 11 | 349 | 3.2 | 11.3 | 0.13 | 0.28 | 0.28 | 78 | 1012.6 |
| 20260508010044 | 11 | 7 | 3.2 | 27.4 | 0.13 | 0.28 | 0.28 | 78 | 1012.7 |
| 20260508005526 | 11 | 359 | 9.7 | 43.5 | 0.10 | 0.25 | 0.25 | 74 | 1012.8 |
| 20260508005026 | 12 | 347 | 12.9 | 43.5 | 0.10 | 0.25 | 0.25 | 68 | 1012.2 |
| 20260508004539 | 10 | 359 | 14.5 | 29.0 | 0.08 | 0.23 | 0.23 | 78 | 1011.6 |
| 20260508004025 | 10 | 49 | 6.4 | 22.5 | 0.08 | 0.23 | 0.23 | 82 | 1013.4 |
| 20260508003531 | 10 | 340 | 11.3 | 24.1 | 0.05 | 0.20 | 0.20 | 80 | 1014.0 |
| 20260508003049 | 11 | 359 | 8.0 | 24.1 | 0.03 | 0.18 | 0.18 | 77 | 1014.1 |
| 20260508002529 | 12 | 321 | 11.3 | 24.1 | 0.03 | 0.18 | 0.18 | 73 | 1014.0 |
| 20260508002026 | 13 | 285 | 3.2 | 8.0 | 0.00 | 0.15 | 0.15 | 70 | 1013.5 |
| 20260508001537 | 13 | 249 | 3.2 | 12.9 | 0.00 | 0.15 | 0.15 | 68 | 1012.9 |
| 20260508001026 | 14 | 276 | 4.8 | 12.9 | 0.00 | 0.15 | 0.15 | 67 | 1012.8 |
| 20260508000526 | 14 | 230 | 4.8 | 12.9 | 0.00 | 0.15 | 0.15 | 65 | 1012.3 |
| 20260508000040 | 14 | 250 | 3.2 | 9.7 | 0.00 | 0.15 | 0.15 | 66 | 1012.1 |
| 20260507235527 | 14 | 237 | 3.2 | 12.9 | 0.00 | 0.15 | 0.15 | 67 | 1012.1 |
| 20260507235028 | 14 | 233 | 6.4 | 12.9 | 0.00 | 0.15 | 0.15 | 67 | 1012.0 |
| 20260507234540 | 14 | 246 | 4.8 | 11.3 | 0.00 | 0.15 | 0.15 | 67 | 1011.9 |
| 20260507234027 | 14 | 215 | 4.8 | 11.3 | 0.00 | 0.15 | 0.15 | 67 | 1012.1 |
| 20260507233526 | 14 | 210 | 3.2 | 11.3 | 0.00 | 0.15 | 0.15 | 67 | 1012.2 |
| 20260507233040 | 14 | 194 | 8.0 | 12.9 | 0.00 | 0.15 | 0.15 | 66 | 1012.1 |
| 20260507232526 | 14 | 221 | 6.4 | 12.9 | 0.00 | 0.15 | 0.15 | 66 | 1012.2 |
| 20260507232025 | 15 | 227 | 8.0 | 12.9 | 0.00 | 0.15 | 0.15 | 64 | 1012.1 |
| 20260507231545 | 15 | 214 | 8.0 | 16.1 | 0.00 | 0.15 | 0.15 | 65 | 1012.0 |
| 20260507231026 | 15 | 213 | 8.0 | 16.1 | 0.00 | 0.15 | 0.15 | 64 | 1012.2 |
| 20260507230527 | 15 | 220 | 6.4 | 14.5 | 0.00 | 0.15 | 0.15 | 62 | 1012.2 |
| 20260507230040 | 15 | 283 | 3.2 | 14.5 | 0.00 | 0.15 | 0.15 | 63 | 1012.2 |
| 20260507225527 | 14 | 243 | 3.2 | 8.0 | 0.00 | 0.15 | 0.15 | 67 | 1012.2 |
| 20260507225027 | 13 | 264 | 1.6 | 6.4 | 0.00 | 0.15 | 0.15 | 66 | 1012.4 |
| 20260507224556 | 13 | 266 | 3.2 | 9.7 | 0.00 | 0.15 | 0.15 | 66 | 1012.4 |
| 20260507224027 | 13 | 0 | 1.6 | 14.5 | 0.00 | 0.15 | 0.15 | 66 | 1012.5 |
| 20260507223527 | 14 | 329 | 6.4 | 16.1 | 0.00 | 0.15 | 0.15 | 64 | 1012.4 |
| 20260507223046 | 14 | 309 | 6.4 | 16.1 | 0.00 | 0.15 | 0.15 | 62 | 1012.4 |
| 20260507222526 | 14 | 1 | 1.6 | 11.3 | 0.00 | 0.15 | 0.15 | 66 | 1012.2 |
| 20260507222027 | 14 | 347 | 3.2 | 11.3 | 0.00 | 0.15 | 0.15 | 66 | 1012.4 |
| 20260507221539 | 14 | 359 | 1.6 | 9.7 | 0.00 | 0.15 | 0.15 | 68 | 1012.4 |
| 20260507221030 | 14 | 342 | 3.2 | 9.7 | 0.00 | 0.15 | 0.15 | 67 | 1012.4 |
| 20260507220527 | 14 | 319 | 4.8 | 9.7 | 0.00 | 0.15 | 0.15 | 68 | 1012.4 |
| 20260507220038 | 14 | 331 | 4.8 | 9.7 | 0.00 | 0.15 | 0.15 | 67 | 1012.6 |
| 20260507215527 | 15 | 315 | 1.6 | 6.4 | 0.00 | 0.15 | 0.15 | 66 | 1012.8 |
| 20260507215027 | 15 | 340 | 1.6 | 9.7 | 0.00 | 0.15 | 0.15 | 62 | 1012.9 |
| 20260507214539 | 15 | 325 | 1.6 | 11.3 | 0.00 | 0.15 | 0.15 | 61 | 1012.7 |
| 20260507214026 | 15 | 347 | 4.8 | 11.3 | 0.00 | 0.15 | 0.15 | 59 | 1012.7 |
| 20260507213529 | 15 | 336 | 3.2 | 9.7 | 0.00 | 0.15 | 0.15 | 59 | 1012.8 |
| 20260507213037 | 15 | 325 | 4.8 | 11.3 | 0.00 | 0.15 | 0.15 | 58 | 1012.8 |
| 20260507212527 | 15 | 348 | 4.8 | 14.5 | 0.00 | 0.15 | 0.15 | 60 | 1012.6 |
| 20260507212027 | 15 | 314 | 3.2 | 14.5 | 0.00 | 0.15 | 0.15 | 61 | 1012.7 |
| 20260507211539 | 15 | 33 | 6.4 | 14.5 | 0.00 | 0.15 | 0.15 | 63 | 1012.7 |
| 20260507211026 | 15 | 360 | 1.6 | 17.7 | 0.00 | 0.15 | 0.15 | 60 | 1012.6 |
| 20260507210527 | 15 | 11 | 3.2 | 20.9 | 0.00 | 0.15 | 0.15 | 59 | 1012.7 |
| 20260507210105 | 15 | 286 | 6.4 | 20.9 | 0.00 | 0.15 | 0.15 | 57 | 1012.8 |
| 20260507205527 | 15 | 330 | 9.7 | 20.9 | 0.00 | 0.15 | 0.15 | 59 | 1012.9 |
| 20260507205027 | 15 | 314 | 11.3 | 20.9 | 0.00 | 0.15 | 0.15 | 59 | 1012.9 |
| 20260507204537 | 15 | 316 | 9.7 | 24.1 | 0.00 | 0.15 | 0.15 | 60 | 1012.8 |
| 20260507204026 | 15 | 328 | 9.7 | 29.0 | 0.00 | 0.15 | 0.15 | 60 | 1013.0 |
| 20260507203527 | 15 | 1 | 14.5 | 29.0 | 0.00 | 0.15 | 0.15 | 58 | 1013.0 |
| 20260507203037 | 16 | 352 | 14.5 | 29.0 | 0.00 | 0.15 | 0.15 | 54 | 1013.0 |
| 20260507202526 | 16 | 326 | 16.1 | 29.0 | 0.00 | 0.15 | 0.15 | 56 | 1013.1 |
| 20260507202026 | 16 | 323 | 14.5 | 29.0 | 0.00 | 0.15 | 0.15 | 53 | 1012.8 |
| 20260507201537 | 16 | 354 | 12.9 | 29.0 | 0.00 | 0.15 | 0.15 | 54 | 1012.7 |
| 20260507201029 | 16 | 308 | 8.0 | 22.5 | 0.00 | 0.15 | 0.15 | 59 | 1012.4 |
| 20260507200526 | 16 | 335 | 9.7 | 22.5 | 0.00 | 0.15 | 0.15 | 65 | 1012.4 |
| 20260507200052 | 14 | 14 | 11.3 | 22.5 | 0.00 | 0.15 | 0.15 | 63 | 1012.4 |
| 20260507195527 | 14 | 338 | 6.4 | 17.7 | 0.00 | 0.15 | 0.15 | 65 | 1012.8 |
| 20260507195028 | 13 | 8 | 8.0 | 17.7 | 0.00 | 0.15 | 0.15 | 66 | 1012.9 |
| 20260507194538 | 13 | 44 | 8.0 | 16.1 | 0.00 | 0.15 | 0.15 | 67 | 1012.8 |
| 20260507194026 | 13 | 49 | 9.7 | 16.1 | 0.00 | 0.15 | 0.15 | 66 | 1013.3 |
| 20260507193528 | 13 | 32 | 8.0 | 16.1 | 0.00 | 0.15 | 0.15 | 68 | 1013.2 |
| 20260507193102 | 13 | 72 | 6.4 | 16.1 | 0.00 | 0.15 | 0.15 | 70 | 1013.1 |
| 20260507192524 | 13 | 39 | 6.4 | 14.5 | 0.00 | 0.15 | 0.15 | 69 | 1013.3 |
| 20260507192025 | 13 | 325 | 3.2 | 14.5 | 0.00 | 0.15 | 0.15 | 69 | 1013.5 |
| 20260507191537 | 13 | 32 | 6.4 | 16.1 | 0.00 | 0.15 | 0.15 | 67 | 1013.6 |
| 20260507191027 | 13 | 54 | 4.8 | 17.7 | 0.00 | 0.15 | 0.15 | 68 | 1013.4 |
| 20260507190527 | 13 | 31 | 8.0 | 17.7 | 0.00 | 0.15 | 0.15 | 68 | 1013.3 |
| 20260507190039 | 13 | 32 | 6.4 | 17.7 | 0.00 | 0.15 | 0.15 | 67 | 1013.3 |
| 20260507185528 | 13 | 39 | 9.7 | 19.3 | 0.00 | 0.15 | 0.15 | 67 | 1013.3 |
| 20260507185028 | 13 | 10 | 9.7 | 19.3 | 0.00 | 0.15 | 0.15 | 69 | 1013.4 |
| 20260507184540 | 13 | 56 | 8.0 | 16.1 | 0.00 | 0.15 | 0.15 | 68 | 1013.5 |
| 20260507184026 | 13 | 39 | 8.0 | 16.1 | 0.00 | 0.15 | 0.15 | 68 | 1013.8 |
| 20260507183530 | 13 | 44 | 6.4 | 12.9 | 0.00 | 0.15 | 0.15 | 65 | 1013.6 |
| 20260507183040 | 13 | 108 | 6.4 | 16.1 | 0.00 | 0.15 | 0.15 | 66 | 1013.6 |
| 20260507182527 | 13 | 21 | 8.0 | 16.1 | 0.00 | 0.15 | 0.15 | 66 | 1013.6 |
| 20260507182026 | 13 | 37 | 9.7 | 19.3 | 0.00 | 0.15 | 0.15 | 66 | 1013.6 |
| 20260507181536 | 13 | 82 | 6.4 | 19.3 | 0.00 | 0.15 | 0.15 | 65 | 1013.6 |
| 20260507181028 | 13 | 354 | 8.0 | 16.1 | 0.00 | 0.15 | 0.15 | 68 | 1013.5 |
| 20260507180526 | 13 | 96 | 8.0 | 16.1 | 0.00 | 0.15 | 0.15 | 71 | 1013.5 |
| 20260507180037 | 13 | 28 | 8.0 | 12.9 | 0.00 | 0.15 | 0.15 | 73 | 1013.5 |
| 20260507175526 | 12 | 86 | 6.4 | 16.1 | 0.00 | 0.15 | 0.15 | 72 | 1013.5 |
| 20260507175028 | 12 | 68 | 6.4 | 16.1 | 0.00 | 0.15 | 0.15 | 76 | 1013.5 |
| 20260507174536 | 13 | 35 | 6.4 | 16.1 | 0.00 | 0.15 | 0.15 | 74 | 1013.7 |
| 20260507174025 | 12 | 51 | 9.7 | 16.1 | 0.00 | 0.15 | 0.15 | 74 | 1013.6 |
| 20260507173526 | 13 | 35 | 6.4 | 16.1 | 0.00 | 0.15 | 0.15 | 75 | 1013.6 |
| 20260507173047 | 12 | 83 | 8.0 | 14.5 | 0.00 | 0.15 | 0.15 | 75 | 1013.6 |
| 20260507172542 | 12 | 27 | 6.4 | 14.5 | 0.00 | 0.15 | 0.15 | 74 | 1013.7 |
| 20260507172025 | 12 | 21 | 6.4 | 14.5 | 0.00 | 0.15 | 0.15 | 76 | 1013.7 |
| 20260507171538 | 12 | 34 | 6.4 | 14.5 | 0.00 | 0.15 | 0.15 | 77 | 1013.8 |
| 20260507171027 | 12 | 60 | 8.0 | 14.5 | 0.00 | 0.15 | 0.15 | 76 | 1013.7 |
| 20260507170527 | 11 | 20 | 8.0 | 19.3 | 0.00 | 0.15 | 0.15 | 77 | 1013.9 |
| 20260507170038 | 11 | 70 | 6.4 | 19.3 | 0.00 | 0.15 | 0.15 | 76 | 1013.9 |
| 20260507165526 | 11 | 61 | 9.7 | 17.7 | 0.00 | 0.15 | 0.15 | 75 | 1013.8 |
| 20260507165029 | 12 | 8 | 8.0 | 14.5 | 0.00 | 0.15 | 0.15 | 76 | 1013.9 |
| 20260507164538 | 11 | 83 | 6.4 | 14.5 | 0.00 | 0.15 | 0.15 | 76 | 1013.9 |
| 20260507164029 | 11 | 37 | 6.4 | 14.5 | 0.00 | 0.15 | 0.15 | 76 | 1014.0 |
| 20260507163526 | 11 | 1 | 6.4 | 12.9 | 0.00 | 0.15 | 0.15 | 79 | 1013.9 |
| 20260507163043 | 10 | 16 | 4.8 | 12.9 | 0.00 | 0.15 | 0.15 | 79 | 1014.0 |
| 20260507162525 | 10 | 101 | 6.4 | 12.9 | 0.00 | 0.15 | 0.15 | 80 | 1013.9 |
| 20260507162027 | 10 | 350 | 4.8 | 12.9 | 0.00 | 0.15 | 0.15 | 81 | 1014.0 |
| 20260507161551 | 10 | 1 | 6.4 | 12.9 | 0.00 | 0.15 | 0.15 | 79 | 1014.0 |
| 20260507161025 | 10 | 26 | 4.8 | 12.9 | 0.00 | 0.15 | 0.15 | 81 | 1014.2 |
| 20260507160525 | 10 | 19 | 6.4 | 14.5 | 0.00 | 0.15 | 0.15 | 81 | 1014.2 |
| 20260507160057 | 10 | 54 | 6.4 | 16.1 | 0.00 | 0.15 | 0.15 | 81 | 1014.0 |
| 20260507155528 | 10 | 37 | 8.0 | 16.1 | 0.00 | 0.15 | 0.15 | 82 | 1013.9 |
| 20260507155025 | 10 | 86 | 4.8 | 16.1 | 0.00 | 0.15 | 0.15 | 83 | 1013.9 |
| 20260507154537 | 9 | 71 | 6.4 | 16.1 | 0.00 | 0.15 | 0.15 | 83 | 1013.9 |
| 20260507154024 | 10 | 33 | 8.0 | 16.1 | 0.00 | 0.15 | 0.15 | 84 | 1013.9 |
| 20260507153524 | 10 | 32 | 6.4 | 12.9 | 0.00 | 0.15 | 0.15 | 83 | 1013.9 |
| 20260507153036 | 9 | 76 | 6.4 | 14.5 | 0.00 | 0.15 | 0.15 | 83 | 1013.7 |
| 20260507152523 | 9 | 98 | 8.0 | 14.5 | 0.00 | 0.15 | 0.15 | 82 | 1013.6 |
| 20260507152026 | 9 | 85 | 6.4 | 12.9 | 0.00 | 0.15 | 0.15 | 83 | 1013.6 |
| 20260507151536 | 9 | 74 | 4.8 | 11.3 | 0.00 | 0.15 | 0.15 | 85 | 1013.7 |
| 20260507151024 | 8 | 90 | 6.4 | 11.3 | 0.00 | 0.15 | 0.15 | 86 | 1013.6 |
| 20260507150524 | 8 | 91 | 6.4 | 9.7 | 0.00 | 0.15 | 0.15 | 87 | 1013.8 |
| 20260507150040 | 8 | 45 | 4.8 | 9.7 | 0.00 | 0.15 | 0.15 | 86 | 1014.0 |
| 20260507145523 | 8 | 44 | 4.8 | 9.7 | 0.00 | 0.15 | 0.15 | 86 | 1014.1 |
| 20260507145029 | 8 | 69 | 4.8 | 9.7 | 0.00 | 0.15 | 0.15 | 86 | 1014.0 |
| 20260507144548 | 8 | 70 | 3.2 | 9.7 | 0.00 | 0.15 | 0.15 | 85 | 1014.2 |
| 20260507144027 | 8 | 22 | 3.2 | 8.0 | 0.00 | 0.15 | 0.15 | 85 | 1014.2 |
| 20260507143524 | 8 | 61 | 3.2 | 6.4 | 0.00 | 0.15 | 0.15 | 85 | 1014.0 |
| 20260507143036 | 8 | 120 | 3.2 | 6.4 | 0.03 | 0.15 | 0.15 | 86 | 1014.0 |
| 20260507142525 | 8 | 60 | 3.2 | 6.4 | 0.03 | 0.15 | 0.15 | 86 | 1014.0 |
| 20260507142024 | 8 | 82 | 3.2 | 6.4 | 0.05 | 0.15 | 0.15 | 87 | 1013.9 |
| 20260507141544 | 8 | 0 | 0.0 | 8.0 | 0.05 | 0.15 | 0.15 | 88 | 1013.8 |
| 20260507141026 | 7 | 46 | 3.2 | 8.0 | 0.05 | 0.15 | 0.15 | 88 | 1013.7 |
| 20260507140524 | 7 | 43 | 4.8 | 9.7 | 0.05 | 0.15 | 0.15 | 88 | 1013.7 |
| 20260507140041 | 7 | 0 | 0.0 | 11.3 | 0.05 | 0.15 | 0.15 | 88 | 1013.6 |
| 20260507135524 | 7 | 126 | 3.2 | 11.3 | 0.05 | 0.15 | 0.15 | 89 | 1013.1 |
| 20260507135025 | 7 | 165 | 4.8 | 11.3 | 0.05 | 0.15 | 0.15 | 89 | 1013.2 |
| 20260507134537 | 7 | 188 | 3.2 | 8.0 | 0.05 | 0.15 | 0.15 | 89 | 1013.4 |
| 20260507134026 | 7 | 127 | 3.2 | 12.9 | 0.05 | 0.15 | 0.15 | 89 | 1013.4 |
| 20260507133525 | 7 | 133 | 4.8 | 12.9 | 0.05 | 0.15 | 0.15 | 89 | 1013.1 |
| 20260507133038 | 7 | 203 | 4.8 | 9.7 | 0.03 | 0.13 | 0.13 | 90 | 1013.1 |
| 20260507132524 | 7 | 185 | 4.8 | 9.7 | 0.03 | 0.13 | 0.13 | 90 | 1013.1 |
| 20260507132024 | 7 | 140 | 3.2 | 8.0 | 0.00 | 0.10 | 0.10 | 90 | 1013.2 |
| 20260507131537 | 7 | 0 | 1.6 | 6.4 | 0.00 | 0.10 | 0.10 | 90 | 1013.3 |
| 20260507131024 | 7 | 154 | 3.2 | 6.4 | 0.00 | 0.10 | 0.10 | 90 | 1013.3 |
| 20260507130526 | 7 | 195 | 1.6 | 4.8 | 0.00 | 0.10 | 0.10 | 90 | 1013.7 |
| 20260507130041 | 7 | 193 | 1.6 | 4.8 | 0.00 | 0.10 | 0.10 | 90 | 1013.7 |
| 20260507125523 | 7 | 0 | 0.0 | 9.7 | 0.00 | 0.10 | 0.10 | 90 | 1013.7 |
| 20260507125026 | 7 | 328 | 1.6 | 9.7 | 0.00 | 0.10 | 0.10 | 90 | 1013.7 |
| 20260507124540 | 7 | 359 | 4.8 | 8.0 | 0.00 | 0.10 | 0.10 | 90 | 1013.7 |
| 20260507124023 | 7 | 0 | 0.0 | 0.0 | 0.00 | 0.10 | 0.10 | 90 | 1013.3 |
| 20260507123524 | 7 | 0 | 0.0 | 0.0 | 0.03 | 0.10 | 0.10 | 90 | 1013.1 |
| 20260507123043 | 7 | 0 | 0.0 | 3.2 | 0.03 | 0.10 | 0.10 | 89 | 1013.0 |
| 20260507122525 | 7 | 0 | 0.0 | 8.0 | 0.03 | 0.10 | 0.10 | 90 | 1012.8 |
| 20260507122026 | 7 | 138 | 0.0 | 8.0 | 0.03 | 0.10 | 0.10 | 89 | 1012.7 |
| 20260507121538 | 7 | 169 | 3.2 | 8.0 | 0.03 | 0.10 | 0.10 | 89 | 1012.5 |
| 20260507121024 | 7 | 163 | 1.6 | 8.0 | 0.03 | 0.10 | 0.10 | 90 | 1012.6 |
| 20260507120523 | 7 | 226 | 3.2 | 8.0 | 0.03 | 0.10 | 0.10 | 90 | 1012.7 |
| 20260507120043 | 7 | 200 | 3.2 | 8.0 | 0.03 | 0.10 | 0.10 | 89 | 1012.6 |
| 20260507115523 | 7 | 210 | 3.2 | 6.4 | 0.03 | 0.10 | 0.10 | 89 | 1012.5 |
| 20260507115023 | 7 | 176 | 3.2 | 6.4 | 0.03 | 0.10 | 0.10 | 89 | 1012.4 |
| 20260507114545 | 7 | 245 | 1.6 | 4.8 | 0.03 | 0.10 | 0.10 | 89 | 1012.6 |
| 20260507114023 | 7 | 0 | 1.6 | 4.8 | 0.03 | 0.10 | 0.10 | 89 | 1012.6 |
| 20260507113523 | 7 | 188 | 1.6 | 4.8 | 0.00 | 0.08 | 0.08 | 89 | 1012.7 |
| 20260507113038 | 7 | 81 | 1.6 | 4.8 | 0.00 | 0.08 | 0.08 | 88 | 1013.1 |
| 20260507112524 | 7 | 0 | 0.0 | 6.4 | 0.00 | 0.08 | 0.08 | 88 | 1012.8 |
| 20260507112024 | 7 | 191 | 1.6 | 6.4 | 0.00 | 0.08 | 0.08 | 88 | 1012.7 |
| 20260507111545 | 7 | 223 | 3.2 | 6.4 | 0.03 | 0.08 | 0.08 | 88 | 1012.8 |
| 20260507111023 | 7 | 172 | 1.6 | 9.7 | 0.03 | 0.08 | 0.08 | 88 | 1012.7 |
| 20260507110523 | 7 | 0 | 3.2 | 9.7 | 0.05 | 0.08 | 0.08 | 88 | 1012.8 |
| 20260507110044 | 7 | 212 | 0.0 | 6.4 | 0.05 | 0.08 | 0.08 | 88 | 1012.9 |
| 20260507105525 | 7 | 0 | 1.6 | 8.0 | 0.08 | 0.08 | 0.08 | 88 | 1012.8 |
| 20260507105023 | 7 | 216 | 3.2 | 8.0 | 0.08 | 0.08 | 0.08 | 87 | 1012.8 |
| 20260507104544 | 8 | 222 | 0.0 | 6.4 | 0.08 | 0.08 | 0.08 | 87 | 1012.5 |
| 20260507104023 | 8 | 224 | 3.2 | 6.4 | 0.08 | 0.08 | 0.08 | 86 | 1012.8 |
| 20260507103526 | 8 | 0 | 0.0 | 6.4 | 0.08 | 0.08 | 0.08 | 85 | 1012.8 |
| 20260507103040 | 8 | 250 | 3.2 | 6.4 | 0.08 | 0.08 | 0.08 | 85 | 1013.3 |
| 20260507102525 | 8 | 203 | 1.6 | 11.3 | 0.08 | 0.08 | 0.08 | 85 | 1013.1 |
| 20260507102026 | 8 | 134 | 3.2 | 11.3 | 0.08 | 0.08 | 0.08 | 84 | 1013.0 |
| 20260507101543 | 8 | 68 | 4.8 | 11.3 | 0.05 | 0.05 | 0.05 | 84 | 1012.9 |
| 20260507101027 | 8 | 76 | 3.2 | 8.0 | 0.05 | 0.05 | 0.05 | 83 | 1013.0 |
| 20260507100525 | 8 | 50 | 3.2 | 4.8 | 0.03 | 0.03 | 0.03 | 81 | 1013.0 |
| 20260507100037 | 8 | 84 | 1.6 | 6.4 | 0.00 | 0.00 | 0.00 | 80 | 1013.0 |
| 20260507095524 | 8 | 45 | 1.6 | 14.5 | 0.00 | 0.00 | 0.00 | 79 | 1013.1 |
| 20260507095029 | 8 | 342 | 4.8 | 16.1 | 0.00 | 0.00 | 0.00 | 78 | 1013.3 |
| 20260507094541 | 9 | 300 | 6.4 | 16.1 | 0.00 | 0.00 | 0.00 | 78 | 1013.2 |
| 20260507094027 | 9 | 360 | 6.4 | 16.1 | 0.00 | 0.00 | 0.00 | 76 | 1013.2 |
| 20260507093523 | 9 | 359 | 6.4 | 22.5 | 0.00 | 0.00 | 0.00 | 75 | 1013.1 |
| 20260507093043 | 10 | 343 | 11.3 | 25.7 | 0.00 | 0.00 | 0.00 | 73 | 1013.3 |
| 20260507092523 | 10 | 343 | 12.9 | 29.0 | 0.00 | 0.00 | 0.00 | 72 | 1013.4 |
| 20260507092023 | 10 | 352 | 12.9 | 29.0 | 0.00 | 0.00 | 0.00 | 71 | 1013.3 |
| 20260507091540 | 10 | 350 | 12.9 | 25.7 | 0.00 | 0.00 | 0.00 | 69 | 1013.2 |
| 20260507091023 | 10 | 312 | 8.0 | 22.5 | 0.00 | 0.00 | 0.00 | 70 | 1013.0 |
| 20260507090525 | 10 | 333 | 8.0 | 22.5 | 0.00 | 0.00 | 0.00 | 70 | 1012.9 |
| 20260507090038 | 10 | 311 | 9.7 | 24.1 | 0.00 | 0.00 | 0.00 | 69 | 1012.9 |
| 20260507085527 | 10 | 316 | 11.3 | 24.1 | 0.00 | 0.00 | 0.00 | 68 | 1012.8 |